Location: Baumgarten
(49.0970°N, 12.7493°E)
Time: 07:48:51
(UTC+00:00)

BREEZE-M DEB (TANK) - Pass Details

Date: 05 July 2020
Orbit: 327 x 12050 km, 49.6° (Epoch: 04 August)

Event Time Altitude Azimuth Distance (km) Brightness Sun altitude
Rises 22:34:37 0° 285° (WNW) 3,424 6.5 -17.7°
Reaches altitude 10° 22:37:51 10° 281° (W) 1,813 5.0 -17.8°
Enters shadow 22:40:39 43° 242° (WSW) 549 1.9 -17.9°
